| time (UTC) | temp F | wind direction | speed knots | gust knots | rain 1hr in | rain 24hr in | rain mn in | humidity % | barometer mb |
| 20260503220427 | 56 | 44 | 0.9 | 3.5 | 0.00 | 0.00 | 0.00 | 32 | 1017.3 |
| 20260503215925 | 57 | 248 | 3.5 | 7.0 | 0.00 | 0.00 | 0.00 | 35 | 1017.3 |
| 20260503215421 | 56 | 199 | 2.6 | 5.2 | 0.00 | 0.00 | 0.00 | 35 | 1017.1 |
| 20260503214919 | 57 | 192 | 4.3 | 7.0 | 0.00 | 0.00 | 0.00 | 32 | 1017.1 |
| 20260503214416 | 56 | 172 | 0.9 | 7.0 | 0.00 | 0.00 | 0.00 | 36 | 1017.0 |
| 20260503213914 | 55 | 313 | 3.5 | 6.1 | 0.00 | 0.00 | 0.00 | 34 | 1017.1 |
| 20260503213412 | 55 | 317 | 2.6 | 5.2 | 0.00 | 0.00 | 0.00 | 35 | 1017.1 |
| 20260503212908 | 56 | 31 | 5.2 | 9.6 | 0.00 | 0.00 | 0.00 | 33 | 1017.1 |
| 20260503212406 | 56 | 297 | 3.5 | 6.1 | 0.00 | 0.00 | 0.00 | 35 | 1017.3 |
| 20260503211903 | 58 | 181 | 3.5 | 3.5 | 0.00 | 0.00 | 0.00 | 35 | 1017.4 |
| 20260503211359 | 57 | 273 | 1.7 | 3.5 | 0.00 | 0.00 | 0.00 | 35 | 1017.6 |
| 20260503210854 | 57 | 212 | 2.6 | 3.5 | 0.00 | 0.00 | 0.00 | 33 | 1017.3 |
| 20260503210352 | 56 | 264 | 0.0 | 2.6 | 0.00 | 0.00 | 0.00 | 37 | 1017.4 |
| 20260503205847 | 55 | 62 | 2.6 | 3.5 | 0.00 | 0.00 | 0.00 | 33 | 1017.5 |
| 20260503205344 | 56 | 315 | 4.3 | 11.3 | 0.00 | 0.00 | 0.00 | 33 | 1017.5 |
| 20260503204840 | 56 | 243 | 0.0 | 3.5 | 0.00 | 0.00 | 0.00 | 36 | 1017.7 |
| 20260503204338 | 55 | 275 | 1.7 | 6.1 | 0.00 | 0.00 | 0.00 | 35 | 1017.6 |
| 20260503203835 | 56 | 280 | 3.5 | 5.2 | 0.00 | 0.00 | 0.00 | 33 | 1017.7 |
| 20260503203332 | 56 | 340 | 5.2 | 6.1 | 0.00 | 0.00 | 0.00 | 35 | 1017.8 |
| 20260503202829 | 56 | 259 | 3.5 | 7.0 | 0.00 | 0.00 | 0.00 | 34 | 1017.9 |
| 20260503202327 | 56 | 92 | 1.7 | 3.5 | 0.00 | 0.00 | 0.00 | 33 | 1017.9 |
| 20260503201825 | 55 | 266 | 1.7 | 8.7 | 0.00 | 0.00 | 0.00 | 34 | 1017.7 |
| 20260503201321 | 55 | 271 | 1.7 | 3.5 | 0.00 | 0.00 | 0.00 | 35 | 1018.0 |
| 20260503200819 | 56 | 344 | 1.7 | 6.1 | 0.00 | 0.00 | 0.00 | 32 | 1018.2 |
| 20260503200315 | 56 | 164 | 1.7 | 3.5 | 0.00 | 0.00 | 0.00 | 38 | 1018.3 |
| 20260503195813 | 56 | 191 | 4.3 | 7.0 | 0.00 | 0.00 | 0.00 | 35 | 1018.2 |
| 20260503195309 | 55 | 163 | 2.6 | 7.0 | 0.00 | 0.00 | 0.00 | 36 | 1018.3 |
| 20260503194806 | 55 | 5 | 2.6 | 5.2 | 0.00 | 0.00 | 0.00 | 34 | 1018.5 |
| 20260503194302 | 55 | 263 | 7.8 | 13.0 | 0.00 | 0.00 | 0.00 | 35 | 1018.7 |
| 20260503193758 | 54 | 19 | 3.5 | 7.8 | 0.00 | 0.00 | 0.00 | 34 | 1018.6 |
| 20260503193254 | 56 | 219 | 0.9 | 6.1 | 0.00 | 0.00 | 0.00 | 33 | 1018.5 |
| 20260503192750 | 55 | 220 | 3.5 | 3.5 | 0.00 | 0.00 | 0.00 | 37 | 1018.8 |
| 20260503192245 | 55 | 292 | 4.3 | 5.2 | 0.00 | 0.00 | 0.00 | 35 | 1018.6 |
| 20260503191743 | 54 | 30 | 5.2 | 8.7 | 0.00 | 0.00 | 0.00 | 35 | 1018.7 |
| 20260503191240 | 55 | 203 | 4.3 | 5.2 | 0.00 | 0.00 | 0.00 | 38 | 1018.7 |
| 20260503190736 | 55 | 267 | 4.3 | 7.0 | 0.00 | 0.00 | 0.00 | 37 | 1018.9 |
| 20260503190233 | 53 | 215 | 4.3 | 5.2 | 0.00 | 0.00 | 0.00 | 45 | 1018.9 |
| 20260503185731 | 55 | 225 | 4.3 | 8.7 | 0.00 | 0.00 | 0.00 | 35 | 1019.1 |
| 20260503185226 | 54 | 315 | 1.7 | 6.1 | 0.00 | 0.00 | 0.00 | 36 | 1019.1 |
| 20260503184721 | 54 | 350 | 1.7 | 6.1 | 0.00 | 0.00 | 0.00 | 38 | 1019.2 |
| 20260503184217 | 54 | 291 | 1.7 | 2.6 | 0.00 | 0.00 | 0.00 | 39 | 1019.3 |
| 20260503183714 | 53 | 115 | 1.7 | 5.2 | 0.00 | 0.00 | 0.00 | 42 | 1019.2 |
| 20260503183211 | 54 | 335 | 1.7 | 2.6 | 0.00 | 0.00 | 0.00 | 37 | 1019.1 |
| 20260503182709 | 54 | 202 | 4.3 | 7.0 | 0.00 | 0.00 | 0.00 | 40 | 1019.5 |
| 20260503182208 | 52 | 218 | 2.6 | 3.5 | 0.00 | 0.00 | 0.00 | 39 | 1019.2 |
| 20260503181703 | 52 | 267 | 2.6 | 3.5 | 0.00 | 0.00 | 0.00 | 36 | 1019.5 |
| 20260503181200 | 51 | 263 | 2.6 | 12.2 | 0.00 | 0.00 | 0.00 | 38 | 1019.6 |
| 20260503180657 | 53 | 270 | 7.0 | 18.2 | 0.00 | 0.00 | 0.00 | 39 | 1019.7 |
| 20260503180156 | 53 | 250 | 4.3 | 7.8 | 0.00 | 0.00 | 0.00 | 39 | 1019.6 |
| 20260503175652 | 52 | 39 | 1.7 | 7.8 | 0.00 | 0.00 | 0.00 | 36 | 1019.6 |
| 20260503175150 | 52 | 122 | 2.6 | 3.5 | 0.00 | 0.00 | 0.00 | 37 | 1019.6 |
| 20260503174646 | 53 | 263 | 1.7 | 7.8 | 0.00 | 0.00 | 0.00 | 44 | 1019.8 |
| 20260503174143 | 51 | 148 | 2.6 | 2.6 | 0.00 | 0.00 | 0.00 | 41 | 1019.7 |
| 20260503173638 | 51 | 292 | 3.5 | 5.2 | 0.00 | 0.00 | 0.00 | 40 | 1019.9 |
| 20260503173135 | 51 | 272 | 2.6 | 2.6 | 0.00 | 0.00 | 0.00 | 40 | 1019.8 |
| 20260503172632 | 51 | 156 | 1.7 | 9.6 | 0.00 | 0.00 | 0.00 | 41 | 1019.8 |
| 20260503172129 | 51 | 281 | 3.5 | 6.1 | 0.00 | 0.00 | 0.00 | 40 | 1019.9 |
| 20260503171625 | 51 | 81 | 0.9 | 3.5 | 0.00 | 0.00 | 0.00 | 38 | 1019.8 |
| 20260503171123 | 49 | 338 | 0.9 | 8.7 | 0.00 | 0.00 | 0.00 | 39 | 1020.0 |
| 20260503170620 | 50 | 141 | 0.9 | 2.6 | 0.00 | 0.00 | 0.00 | 39 | 1020.0 |
| 20260503170116 | 51 | 33 | 1.7 | 3.5 | 0.00 | 0.00 | 0.00 | 43 | 1020.0 |
| 20260503151012 | 45 | 280 | 5.2 | 7.8 | 0.00 | 0.00 | 0.00 | 47 | 1021.1 |
| 20260503150508 | 45 | 261 | 3.5 | 5.2 | 0.00 | 0.00 | 0.00 | 46 | 1021.2 |
| 20260503131401 | 41 | 197 | 1.7 | 6.1 | 0.00 | 0.00 | 0.00 | 62 | 1020.8 |
| 20260503130858 | 41 | 278 | 1.7 | 5.2 | 0.00 | 0.00 | 0.00 | 62 | 1020.8 |
| 20260503130356 | 41 | 77 | 2.6 | 5.2 | 0.00 | 0.00 | 0.00 | 61 | 1020.9 |
| 20260503110755 | 31 | 206 | 0.0 | 0.0 | 0.00 | 0.00 | 0.00 | 92 | 1019.9 |
| 20260503110252 | 31 | 206 | 0.0 | 0.0 | 0.00 | 0.00 | 0.00 | 92 | 1019.9 |
| 20260503100218 | 32 | 264 | 0.0 | 0.0 | 0.00 | 0.00 | 0.00 | 90 | 1019.1 |
| 20260503090143 | 35 | 172 | 0.0 | 0.0 | 0.00 | 0.00 | 0.00 | 83 | 1018.5 |
| 20260503081618 | 37 | 166 | 1.7 | 1.7 | 0.00 | 0.00 | 0.00 | 80 | 1018.6 |
| 20260503081115 | 37 | 115 | 0.0 | 0.0 | 0.00 | 0.00 | 0.00 | 81 | 1018.6 |
| 20260503080611 | 37 | 57 | 0.0 | 0.0 | 0.00 | 0.00 | 0.00 | 81 | 1018.4 |
| 20260503080108 | 37 | 330 | 1.7 | 3.5 | 0.00 | 0.00 | 0.00 | 79 | 1018.3 |
| 20260503072545 | 37 | 257 | 0.0 | 0.9 | 0.00 | 0.00 | 0.00 | 79 | 1018.2 |
| 20260503072042 | 37 | 76 | 0.0 | 0.9 | 0.00 | 0.00 | 0.00 | 79 | 1017.9 |
| 20260503071539 | 37 | 195 | 0.0 | 0.9 | 0.00 | 0.00 | 0.00 | 80 | 1018.0 |
| 20260503071036 | 36 | 95 | 0.9 | 1.7 | 0.00 | 0.00 | 0.00 | 79 | 1017.8 |
| 20260503070532 | 37 | 263 | 0.9 | 3.5 | 0.00 | 0.00 | 0.00 | 80 | 1017.7 |
| 20260503060145 | 38 | 238 | 0.0 | 0.0 | 0.00 | 0.00 | 0.00 | 79 | 1017.9 |
| 20260503054632 | 37 | 287 | 0.9 | 3.5 | 0.00 | 0.00 | 0.00 | 78 | 1017.6 |
| 20260503054129 | 37 | 287 | 0.9 | 3.5 | 0.00 | 0.00 | 0.00 | 78 | 1017.6 |
| 20260503053627 | 37 | 241 | 0.0 | 0.0 | 0.00 | 0.00 | 0.00 | 82 | 1017.7 |
| 20260503053126 | 37 | 317 | 0.0 | 0.0 | 0.00 | 0.00 | 0.00 | 81 | 1017.7 |
| 20260503052621 | 37 | 235 | 0.0 | 0.0 | 0.00 | 0.00 | 0.00 | 81 | 1017.7 |
| 20260503052118 | 37 | 235 | 0.0 | 0.0 | 0.00 | 0.00 | 0.00 | 81 | 1017.8 |
| 20260503051613 | 37 | 222 | 0.0 | 0.0 | 0.00 | 0.00 | 0.00 | 79 | 1017.7 |
| 20260503051111 | 37 | 254 | 0.0 | 0.0 | 0.00 | 0.00 | 0.00 | 79 | 1017.7 |
| 20260503050607 | 37 | 295 | 0.0 | 0.0 | 0.00 | 0.00 | 0.00 | 78 | 1017.6 |
| 20260503050105 | 37 | 306 | 1.7 | 1.7 | 0.00 | 0.00 | 0.00 | 78 | 1017.5 |
| 20260503045601 | 38 | 35 | 1.7 | 2.6 | 0.00 | 0.00 | 0.00 | 76 | 1017.8 |
| 20260503045059 | 38 | 35 | 1.7 | 2.6 | 0.00 | 0.00 | 0.00 | 76 | 1017.8 |
| 20260503044555 | 38 | 26 | 0.9 | 1.7 | 0.00 | 0.00 | 0.00 | 76 | 1017.7 |
| 20260503044053 | 39 | 36 | 2.6 | 6.1 | 0.00 | 0.00 | 0.00 | 75 | 1017.5 |
| 20260503043549 | 39 | 114 | 0.0 | 0.9 | 0.00 | 0.00 | 0.00 | 74 | 1017.8 |
| 20260503043046 | 39 | 199 | 0.0 | 0.0 | 0.00 | 0.00 | 0.00 | 76 | 1017.9 |
| 20260503042543 | 39 | 199 | 0.0 | 0.0 | 0.00 | 0.00 | 0.00 | 76 | 1017.9 |
| 20260503042038 | 39 | 46 | 0.0 | 0.0 | 0.00 | 0.00 | 0.00 | 73 | 1017.8 |
| 20260503041536 | 39 | 49 | 2.6 | 3.5 | 0.00 | 0.00 | 0.00 | 72 | 1017.7 |
| 20260503041033 | 39 | 308 | 1.7 | 5.2 | 0.00 | 0.00 | 0.00 | 72 | 1017.8 |
| 20260503040531 | 40 | 67 | 1.7 | 1.7 | 0.00 | 0.00 | 0.00 | 72 | 1017.8 |
| 20260503040028 | 40 | 269 | 0.9 | 5.2 | 0.00 | 0.00 | 0.00 | 71 | 1017.8 |
| 20260503035524 | 40 | 353 | 1.7 | 2.6 | 0.00 | 0.00 | 0.00 | 71 | 1017.8 |
| 20260503035022 | 40 | 46 | 0.0 | 1.7 | 0.00 | 0.00 | 0.00 | 72 | 1017.7 |
| 20260503034519 | 40 | 5 | 1.7 | 5.2 | 0.00 | 0.00 | 0.00 | 70 | 1017.5 |
| 20260503034016 | 40 | 44 | 1.7 | 6.1 | 0.00 | 0.00 | 0.00 | 70 | 1017.7 |
| 20260503033513 | 41 | 82 | 0.9 | 3.5 | 0.00 | 0.00 | 0.00 | 70 | 1017.6 |
| 20260503033011 | 41 | 80 | 4.3 | 6.1 | 0.00 | 0.00 | 0.00 | 69 | 1017.9 |
| 20260503032509 | 41 | 80 | 4.3 | 6.1 | 0.00 | 0.00 | 0.00 | 69 | 1017.9 |
| 20260503032008 | 41 | 43 | 7.8 | 8.7 | 0.00 | 0.00 | 0.00 | 68 | 1017.6 |
| 20260503031505 | 41 | 93 | 1.7 | 3.5 | 0.00 | 0.00 | 0.00 | 68 | 1017.6 |
| 20260503031001 | 41 | 58 | 5.2 | 7.0 | 0.00 | 0.00 | 0.00 | 68 | 1017.8 |
| 20260503030457 | 41 | 54 | 2.6 | 7.8 | 0.00 | 0.00 | 0.00 | 66 | 1017.7 |
| 20260503025954 | 42 | 22 | 3.5 | 6.1 | 0.00 | 0.00 | 0.00 | 66 | 1017.7 |
| 20260503025451 | 42 | 77 | 1.7 | 3.5 | 0.00 | 0.00 | 0.00 | 65 | 1017.7 |
| 20260503024949 | 42 | 41 | 4.3 | 7.8 | 0.00 | 0.00 | 0.00 | 65 | 1017.7 |
| 20260503024445 | 42 | 17 | 0.9 | 2.6 | 0.00 | 0.00 | 0.00 | 64 | 1017.6 |
| 20260503023943 | 42 | 63 | 3.5 | 7.0 | 0.00 | 0.00 | 0.00 | 63 | 1017.5 |
| 20260503023439 | 42 | 63 | 3.5 | 7.0 | 0.00 | 0.00 | 0.00 | 63 | 1017.5 |
| 20260503022936 | 42 | 42 | 0.0 | 2.6 | 0.00 | 0.00 | 0.00 | 64 | 1017.7 |
| 20260503022431 | 42 | 68 | 3.5 | 6.1 | 0.00 | 0.00 | 0.00 | 63 | 1017.7 |
| 20260503021927 | 42 | 87 | 0.9 | 2.6 | 0.00 | 0.00 | 0.00 | 63 | 1017.7 |
| 20260503021423 | 42 | 130 | 2.6 | 5.2 | 0.00 | 0.00 | 0.00 | 61 | 1017.7 |
| 20260503020921 | 43 | 80 | 3.5 | 5.2 | 0.00 | 0.00 | 0.00 | 61 | 1017.6 |
| 20260503020419 | 43 | 65 | 4.3 | 7.0 | 0.00 | 0.00 | 0.00 | 61 | 1017.4 |
| 20260503015915 | 43 | 64 | 3.5 | 11.3 | 0.00 | 0.00 | 0.00 | 60 | 1017.4 |
| 20260503015412 | 43 | 32 | 5.2 | 7.8 | 0.00 | 0.00 | 0.00 | 59 | 1017.3 |
| 20260503014908 | 43 | 71 | 6.1 | 8.7 | 0.00 | 0.00 | 0.00 | 59 | 1017.4 |
| 20260503014406 | 43 | 36 | 2.6 | 2.6 | 0.00 | 0.00 | 0.00 | 59 | 1017.4 |
| 20260503013903 | 42 | 90 | 3.5 | 6.1 | 0.00 | 0.00 | 0.00 | 60 | 1017.1 |
| 20260503013400 | 43 | 33 | 2.6 | 6.1 | 0.00 | 0.00 | 0.00 | 58 | 1017.3 |
| 20260503012857 | 43 | 42 | 2.6 | 5.2 | 0.00 | 0.00 | 0.00 | 57 | 1017.0 |
| 20260503012355 | 44 | 294 | 3.5 | 5.2 | 0.00 | 0.00 | 0.00 | 54 | 1017.3 |
| 20260503011851 | 44 | 266 | 0.0 | 0.9 | 0.00 | 0.00 | 0.00 | 54 | 1017.0 |
| 20260503011348 | 44 | 38 | 0.0 | 2.6 | 0.00 | 0.00 | 0.00 | 54 | 1017.0 |
| 20260503010845 | 44 | 268 | 0.0 | 1.7 | 0.00 | 0.00 | 0.00 | 55 | 1016.8 |
| 20260503010342 | 45 | 232 | 0.0 | 0.0 | 0.00 | 0.00 | 0.00 | 52 | 1016.7 |
| 20260503005838 | 45 | 31 | 0.9 | 0.9 | 0.00 | 0.00 | 0.00 | 53 | 1016.6 |
| 20260503005336 | 45 | 302 | 1.7 | 6.1 | 0.00 | 0.00 | 0.00 | 50 | 1016.4 |
| 20260503004832 | 45 | 284 | 1.7 | 2.6 | 0.00 | 0.00 | 0.00 | 50 | 1016.5 |
| 20260503004330 | 45 | 234 | 0.0 | 0.9 | 0.00 | 0.00 | 0.00 | 53 | 1016.5 |
| 20260503003827 | 45 | 137 | 0.0 | 0.0 | 0.00 | 0.00 | 0.00 | 51 | 1016.5 |
| 20260503003324 | 45 | 21 | 0.9 | 2.6 | 0.00 | 0.00 | 0.00 | 51 | 1016.4 |
| 20260503002821 | 45 | 277 | 0.9 | 3.5 | 0.00 | 0.00 | 0.00 | 48 | 1016.4 |
| 20260503002318 | 46 | 28 | 1.7 | 5.2 | 0.00 | 0.00 | 0.00 | 49 | 1016.4 |
| 20260503001814 | 46 | 333 | 1.7 | 1.7 | 0.00 | 0.00 | 0.00 | 51 | 1016.1 |
| 20260503001311 | 46 | 269 | 0.0 | 5.2 | 0.00 | 0.00 | 0.00 | 49 | 1016.2 |
| 20260503000808 | 46 | 252 | 0.0 | 1.7 | 0.00 | 0.00 | 0.00 | 48 | 1016.2 |
| 20260503000306 | 46 | 293 | 0.9 | 3.5 | 0.00 | 0.00 | 0.00 | 48 | 1016.0 |
| 20260502235802 | 46 | 293 | 0.9 | 3.5 | 0.00 | 0.00 | 0.00 | 48 | 1016.0 |
| 20260502235300 | 46 | 245 | 0.9 | 2.6 | 0.00 | 0.00 | 0.00 | 48 | 1016.1 |
| 20260502234756 | 46 | 239 | 0.0 | 0.0 | 0.00 | 0.00 | 0.00 | 49 | 1016.2 |
| 20260502234253 | 46 | 357 | 0.0 | 0.0 | 0.00 | 0.00 | 0.00 | 47 | 1016.0 |
| 20260502233749 | 46 | 277 | 2.6 | 3.5 | 0.00 | 0.00 | 0.00 | 47 | 1015.9 |
| 20260502233247 | 46 | 194 | 0.9 | 5.2 | 0.00 | 0.00 | 0.00 | 48 | 1016.0 |
| 20260502232742 | 46 | 214 | 0.0 | 0.0 | 0.00 | 0.00 | 0.00 | 50 | 1015.8 |
| 20260502232239 | 47 | 274 | 0.0 | 0.0 | 0.00 | 0.00 | 0.00 | 48 | 1015.9 |
| 20260502231736 | 46 | 236 | 0.0 | 0.0 | 0.00 | 0.00 | 0.00 | 47 | 1015.8 |
| 20260502231234 | 46 | 243 | 0.0 | 1.7 | 0.00 | 0.00 | 0.00 | 47 | 1015.8 |
| 20260502230732 | 46 | 279 | 0.9 | 3.5 | 0.00 | 0.00 | 0.00 | 47 | 1015.9 |
| 20260502230230 | 46 | 29 | 1.7 | 2.6 | 0.00 | 0.00 | 0.00 | 49 | 1016.0 |
| 20260502225726 | 47 | 34 | 3.5 | 7.8 | 0.00 | 0.00 | 0.00 | 46 | 1016.0 |
| 20260502225218 | 47 | 147 | 1.7 | 3.5 | 0.00 | 0.00 | 0.00 | 47 | 1015.7 |
| 20260502224714 | 47 | 37 | 3.5 | 5.2 | 0.00 | 0.00 | 0.00 | 46 | 1015.7 |
| 20260502224211 | 47 | 246 | 0.0 | 2.6 | 0.00 | 0.00 | 0.00 | 46 | 1015.7 |
| 20260502223709 | 47 | 270 | 4.3 | 8.7 | 0.00 | 0.00 | 0.00 | 46 | 1015.9 |
| 20260502223207 | 47 | 270 | 4.3 | 8.7 | 0.00 | 0.00 | 0.00 | 46 | 1015.9 |
| 20260502222704 | 47 | 199 | 0.0 | 1.7 | 0.00 | 0.00 | 0.00 | 49 | 1015.7 |
| 20260502222200 | 47 | 208 | 1.7 | 3.5 | 0.00 | 0.00 | 0.00 | 46 | 1015.9 |
| 20260502221656 | 47 | 73 | 0.0 | 0.9 | 0.00 | 0.00 | 0.00 | 48 | 1015.8 |
| 20260502221153 | 47 | 297 | 2.6 | 5.2 | 0.00 | 0.00 | 0.00 | 45 | 1015.4 |
| 20260502220649 | 47 | 297 | 2.6 | 5.2 | 0.00 | 0.00 | 0.00 | 45 | 1015.4 |